Time,TemperatureF,DewpointF,PressureIn,WindDirection,WindDirectionDegrees,WindSpeedMPH,WindSpeedGustMPH,Humidity,HourlyPrecipIn,Conditions,Clouds,dailyrainin,SolarRadiationWatts/m^2,SoftwareType,DateUTC
2013-02-19 00:22:00,0.0,-9.0,-100.00,ESE,113,1.0,5.0,64,0.00,,,0.00,0.000000,,2013-02-19 07:22:00,
2013-02-19 00:32:00,0.0,-9.0,-100.00,ESE,113,1.0,5.0,64,0.00,,,0.00,0.000000,,2013-02-19 07:32:00,
2013-02-19 00:42:00,0.0,-9.0,-100.00,ESE,113,1.0,5.0,64,0.00,,,0.00,0.000000,,2013-02-19 07:42:00,
2013-02-19 00:52:00,0.0,-9.0,-100.00,ESE,113,1.0,5.0,64,0.00,,,0.00,0.000000,,2013-02-19 07:52:00,
2013-02-19 01:21:00,-1.0,-10.0,-100.00,SE,146,2.0,4.0,65,0.00,,,0.00,0.000000,,2013-02-19 08:21:00,
2013-02-19 01:32:00,-1.0,-10.0,-100.00,SE,146,2.0,4.0,65,0.00,,,0.00,0.000000,,2013-02-19 08:32:00,
2013-02-19 01:42:00,-1.0,-10.0,-100.00,SE,146,2.0,4.0,65,0.00,,,0.00,0.000000,,2013-02-19 08:42:00,
2013-02-19 01:52:00,-1.0,-10.0,-100.00,SE,146,2.0,4.0,65,0.00,,,0.00,0.000000,,2013-02-19 08:52:00,
2013-02-19 02:22:00,0.0,-11.0,-100.00,ENE,64,3.0,5.0,60,0.00,,,0.00,0.000000,,2013-02-19 09:22:00,
2013-02-19 02:32:00,0.0,-11.0,-100.00,ENE,64,3.0,5.0,60,0.00,,,0.00,0.000000,,2013-02-19 09:32:00,
2013-02-19 02:42:00,0.0,-11.0,-100.00,ENE,64,3.0,5.0,60,0.00,,,0.00,0.000000,,2013-02-19 09:42:00,
2013-02-19 02:52:00,0.0,-11.0,-100.00,ENE,64,3.0,5.0,60,0.00,,,0.00,0.000000,,2013-02-19 09:52:00,
2013-02-19 03:22:00,0.0,-12.0,-100.00,SE,128,2.0,4.0,56,0.00,,,0.00,0.000000,,2013-02-19 10:22:00,
2013-02-19 03:32:00,0.0,-12.0,-100.00,SE,128,2.0,4.0,56,0.00,,,0.00,0.000000,,2013-02-19 10:32:00,
2013-02-19 03:42:00,0.0,-12.0,-100.00,SE,128,2.0,4.0,56,0.00,,,0.00,0.000000,,2013-02-19 10:42:00,
2013-02-19 03:51:00,0.0,-12.0,-100.00,SE,128,2.0,4.0,56,0.00,,,0.00,0.000000,,2013-02-19 10:51:00,
2013-02-19 04:22:00,2.0,-12.0,-100.00,SE,126,2.0,5.0,50,0.00,,,0.00,0.000000,,2013-02-19 11:22:00,
2013-02-19 04:32:00,2.0,-12.0,-100.00,SE,126,2.0,5.0,50,0.00,,,0.00,0.000000,,2013-02-19 11:32:00,
2013-02-19 04:42:00,2.0,-12.0,-100.00,SE,126,2.0,5.0,50,0.00,,,0.00,0.000000,,2013-02-19 11:42:00,
2013-02-19 04:52:00,2.0,-12.0,-100.00,SE,126,2.0,5.0,50,0.00,,,0.00,0.000000,,2013-02-19 11:52:00,
2013-02-19 05:22:00,1.0,-12.0,-100.00,East,92,1.0,4.0,52,0.00,,,0.00,0.000000,,2013-02-19 12:22:00,
2013-02-19 05:32:00,1.0,-12.0,-100.00,East,92,1.0,4.0,52,0.00,,,0.00,0.000000,,2013-02-19 12:32:00,
2013-02-19 05:42:00,1.0,-12.0,-100.00,East,92,1.0,4.0,52,0.00,,,0.00,0.000000,,2013-02-19 12:42:00,
2013-02-19 05:52:00,1.0,-12.0,-100.00,East,92,1.0,4.0,52,0.00,,,0.00,0.000000,,2013-02-19 12:52:00,
2013-02-19 06:22:00,2.0,-13.0,-100.00,SE,127,1.0,4.0,48,0.00,,,0.00,0.000000,,2013-02-19 13:22:00,
2013-02-19 06:32:00,2.0,-13.0,-100.00,SE,127,1.0,4.0,48,0.00,,,0.00,0.000000,,2013-02-19 13:32:00,
2013-02-19 06:42:00,2.0,-13.0,-100.00,SE,127,1.0,4.0,48,0.00,,,0.00,0.000000,,2013-02-19 13:42:00,
2013-02-19 06:52:00,2.0,-13.0,-100.00,SE,127,1.0,4.0,48,0.00,,,0.00,0.000000,,2013-02-19 13:52:00,
2013-02-19 07:21:00,2.0,-14.0,-100.00,ESE,114,2.0,4.0,46,0.00,,,0.00,1.000000,,2013-02-19 14:21:00,
2013-02-19 07:32:00,2.0,-14.0,-100.00,ESE,114,2.0,4.0,46,0.00,,,0.00,1.000000,,2013-02-19 14:32:00,
2013-02-19 07:42:00,2.0,-14.0,-100.00,ESE,114,2.0,4.0,46,0.00,,,0.00,1.000000,,2013-02-19 14:42:00,
2013-02-19 07:52:00,2.0,-14.0,-100.00,ESE,114,2.0,4.0,46,0.00,,,0.00,1.000000,,2013-02-19 14:52:00,
2013-02-19 08:21:00,5.0,-13.0,-100.00,SE,124,2.0,4.0,41,0.00,,,0.00,13.000000,,2013-02-19 15:21:00,
2013-02-19 08:32:00,5.0,-13.0,-100.00,SE,124,2.0,4.0,41,0.00,,,0.00,13.000000,,2013-02-19 15:32:00,
2013-02-19 08:42:00,5.0,-13.0,-100.00,SE,124,2.0,4.0,41,0.00,,,0.00,13.000000,,2013-02-19 15:42:00,
2013-02-19 08:52:00,5.0,-13.0,-100.00,SE,124,2.0,4.0,41,0.00,,,0.00,13.000000,,2013-02-19 15:52:00,
2013-02-19 09:22:00,22.0,-9.0,-100.00,West,273,1.0,5.0,24,0.00,,,0.00,249.000000,,2013-02-19 16:22:00,
2013-02-19 09:42:00,22.0,-9.0,-100.00,West,273,1.0,5.0,24,0.00,,,0.00,249.000000,,2013-02-19 16:42:00,
2013-02-19 09:51:00,22.0,-9.0,-100.00,West,273,1.0,5.0,24,0.00,,,0.00,249.000000,,2013-02-19 16:51:00,
2013-02-19 10:21:00,33.0,-11.0,-100.00,East,80,1.0,4.0,14,0.00,,,0.00,450.000000,,2013-02-19 17:21:00,
2013-02-19 10:42:00,33.0,-11.0,-100.00,East,80,1.0,4.0,14,0.00,,,0.00,450.000000,,2013-02-19 17:42:00,
2013-02-19 10:52:00,33.0,-11.0,-100.00,East,80,1.0,4.0,14,0.00,,,0.00,450.000000,,2013-02-19 17:52:00,
2013-02-19 11:21:00,41.0,-13.0,-100.00,West,274,2.0,6.0,9,0.00,,,0.00,600.000000,,2013-02-19 18:21:00,
2013-02-19 12:21:00,44.0,-16.0,-100.00,SSW,213,4.0,10.0,7,-99.99,,,0.00,629.000000,,2013-02-19 19:21:00,
2013-02-19 13:21:00,46.0,-18.0,-100.00,West,262,4.0,10.0,6,-99.99,,,0.00,718.000000,,2013-02-19 20:21:00,
2013-02-19 14:21:00,42.0,-11.0,-100.00,South,175,8.0,13.0,10,-99.99,,,0.00,609.000000,,2013-02-19 21:21:00,
2013-02-19 14:32:00,42.0,-11.0,-100.00,South,175,8.0,13.0,10,-99.99,,,0.00,609.000000,,2013-02-19 21:32:00,
2013-02-19 15:21:00,41.0,-13.0,-100.00,SSE,150,7.0,14.0,9,-99.99,,,0.00,473.000000,,2013-02-19 22:21:00,
2013-02-19 16:21:00,35.0,-12.0,-100.00,South,171,7.0,18.0,12,-99.99,,,0.00,360.000000,,2013-02-19 23:21:00,
2013-02-19 17:21:00,28.0,-7.0,-100.00,SSW,204,2.0,13.0,21,0.00,,,0.00,140.000000,,2013-02-20 00:21:00,
2013-02-19 17:32:00,28.0,-7.0,-100.00,SSW,204,2.0,13.0,21,0.00,,,0.00,140.000000,,2013-02-20 00:32:00,
2013-02-19 17:42:00,28.0,-7.0,-100.00,SSW,204,2.0,13.0,21,0.00,,,0.00,140.000000,,2013-02-20 00:42:00,
2013-02-19 17:52:00,28.0,-7.0,-100.00,SSW,204,2.0,13.0,21,0.00,,,0.00,140.000000,,2013-02-20 00:52:00,
2013-02-19 18:21:00,23.0,-8.0,-100.00,North,2,1.0,3.0,24,0.00,,,0.00,25.000000,,2013-02-20 01:21:00,
2013-02-19 19:21:00,27.0,-6.0,-100.00,SE,129,5.0,12.0,23,0.00,,,0.00,0.000000,,2013-02-20 02:21:00,
2013-02-19 19:32:00,27.0,-6.0,-100.00,SE,129,5.0,12.0,23,0.00,,,0.00,0.000000,,2013-02-20 02:32:00,
2013-02-19 19:42:00,27.0,-6.0,-100.00,SE,129,5.0,12.0,23,0.00,,,0.00,0.000000,,2013-02-20 02:42:00,
2013-02-19 19:52:00,27.0,-6.0,-100.00,SE,129,5.0,12.0,23,0.00,,,0.00,0.000000,,2013-02-20 02:52:00,
2013-02-19 20:22:00,28.0,-4.0,-100.00,SE,131,7.0,18.0,24,0.00,,,0.00,0.000000,,2013-02-20 03:22:00,
2013-02-19 20:32:00,28.0,-4.0,-100.00,SE,131,7.0,18.0,24,0.00,,,0.00,0.000000,,2013-02-20 03:32:00,
2013-02-19 20:42:00,28.0,-4.0,-100.00,SE,131,7.0,18.0,24,0.00,,,0.00,0.000000,,2013-02-20 03:42:00,
2013-02-19 20:51:00,28.0,-4.0,-100.00,SE,131,7.0,18.0,24,0.00,,,0.00,0.000000,,2013-02-20 03:51:00,
2013-02-19 21:21:00,25.0,-2.0,-100.00,ESE,112,4.0,9.0,30,0.00,,,0.00,0.000000,,2013-02-20 04:21:00,
2013-02-19 21:31:00,25.0,-2.0,-100.00,ESE,112,4.0,9.0,30,0.00,,,0.00,0.000000,,2013-02-20 04:31:00,
2013-02-19 21:42:00,25.0,-2.0,-100.00,ESE,112,4.0,9.0,30,0.00,,,0.00,0.000000,,2013-02-20 04:42:00,
2013-02-19 21:52:00,25.0,-2.0,-100.00,ESE,112,4.0,9.0,30,0.00,,,0.00,0.000000,,2013-02-20 04:52:00,
2013-02-19 22:22:00,27.0,-2.0,-100.00,ESE,116,9.0,15.0,27,0.00,,,0.00,0.000000,,2013-02-20 05:22:00,
2013-02-19 22:32:00,27.0,-2.0,-100.00,ESE,116,9.0,15.0,27,0.00,,,0.00,0.000000,,2013-02-20 05:32:00,
2013-02-19 23:21:00,25.0,-3.0,-100.00,ESE,120,2.0,15.0,29,0.00,,,0.00,0.000000,,2013-02-20 06:21:00,
2013-02-19 23:32:00,25.0,-3.0,-100.00,ESE,120,2.0,15.0,29,0.00,,,0.00,0.000000,,2013-02-20 06:32:00,
2013-02-19 23:42:00,25.0,-3.0,-100.00,ESE,120,2.0,15.0,29,0.00,,,0.00,0.000000,,2013-02-20 06:42:00,
2013-02-19 23:51:00,25.0,-3.0,-100.00,ESE,120,2.0,15.0,29,0.00,,,0.00,0.000000,,2013-02-20 06:51:00,